• In Hungary
  • List of Countries
  • For 7 days
  • Water Temperature
  • Satellite Maps
  • Weather Map
  • News
  • Weather Widgets
  • user-avatar
    Login

    Hourly Weather Hriply

    Today, 27 May, Sunday

    Time Temperature Precipitation Wind Pressure Humidity
    00:00 +12°C° 0 mm 2 mps 750 mmHg 77%
    01:00 +12°C° 0 mm 2 mps 750 mmHg 79%
    02:00 +12°C° 0 mm 2 mps 750 mmHg 81%
    03:00 +11°C° 0 mm 3 mps 750 mmHg 81%
    04:00 +12°C° 0 mm 3 mps 750 mmHg 80%
    05:00 +13°C° 0 mm 3 mps 750 mmHg 79%
    06:00 +14°C° 0 mm 3 mps 749 mmHg 73%
    07:00 +17°C° 0 mm 4 mps 749 mmHg 67%
    08:00 +19°C° 0 mm 4 mps 749 mmHg 61%
    09:00 +20°C° 0 mm 4 mps 749 mmHg 57%
    10:00 +22°C° 0 mm 4 mps 748 mmHg 52%
    11:00 +23°C° 0 mm 4 mps 748 mmHg 48%
    12:00 +25°C° 0 mm 4 mps 748 mmHg 47%
    13:00 +25°C° 0 mm 4 mps 747 mmHg 46%
    14:00 +26°C° 0 mm 4 mps 747 mmHg 45%
    15:00 +25°C° 0 mm 4 mps 747 mmHg 48%
    16:00 +23°C° 0 mm 4 mps 747 mmHg 52%
    17:00 +22°C° 0 mm 3 mps 746 mmHg 55%
    18:00 +20°C° 0 mm 3 mps 747 mmHg 55%
    19:00 +18°C° 0 mm 3 mps 747 mmHg 55%
    20:00 +16°C° 0 mm 3 mps 748 mmHg 55%
    21:00 +14°C° 0 mm 2 mps 748 mmHg 57%
    22:00 +13°C° 0 mm 2 mps 749 mmHg 58%
    23:00 +10°C° 0 mm 2 mps 749 mmHg 59%

    Tomorrow, 28 May, Monday

    Time Temperature Precipitation Wind Pressure Humidity
    00:00 +9°C° 0 mm 2 mps 750 mmHg 58%
    01:00 +9°C° 0 mm 2 mps 750 mmHg 57%
    02:00 +8°C° 0 mm 2 mps 751 mmHg 55%
    03:00 +8°C° 0 mm 2 mps 752 mmHg 55%
    04:00 +8°C° 0 mm 2 mps 752 mmHg 54%
    05:00 +8°C° 0 mm 2 mps 752 mmHg 54%
    06:00 +10°C° 0 mm 2 mps 753 mmHg 48%
    07:00 +13°C° 0 mm 2 mps 753 mmHg 43%
    08:00 +15°C° 0 mm 2 mps 753 mmHg 37%
    09:00 +16°C° 0 mm 2 mps 753 mmHg 34%
    10:00 +17°C° 0 mm 2 mps 753 mmHg 31%
    11:00 +19°C° 0 mm 2 mps 753 mmHg 27%
    12:00 +19°C° 0 mm 2 mps 753 mmHg 27%
    13:00 +20°C° 0 mm 2 mps 753 mmHg 26%
    14:00 +20°C° 0 mm 2 mps 753 mmHg 26%
    15:00 +20°C° 0 mm 2 mps 753 mmHg 28%
    16:00 +20°C° 0 mm 2 mps 752 mmHg 30%
    17:00 +21°C° 0 mm 1 mps 752 mmHg 32%
    18:00 +19°C° 0 mm 1 mps 752 mmHg 40%
    19:00 +15°C° 0 mm 1 mps 752 mmHg 48%
    20:00 +13°C° 0 mm 1 mps 752 mmHg 56%
    21:00 +12°C° 0 mm 1 mps 752 mmHg 57%
    22:00 +11°C° 0 mm 1 mps 752 mmHg 58%
    23:00 +11°C° 0 mm 1 mps 752 mmHg 59%

    Day after tomorrow, 29 May, Tuesday

    Time Temperature Precipitation Wind Pressure Humidity
    00:00 +10°C° 0 mm 1 mps 752 mmHg 61%
    01:00 +10°C° 0 mm 1 mps 752 mmHg 62%
    02:00 +8°C° 0 mm 2 mps 752 mmHg 64%
    03:00 +9°C° 0 mm 2 mps 752 mmHg 64%
    04:00 +9°C° 0 mm 2 mps 752 mmHg 64%
    05:00 +10°C° 0 mm 2 mps 752 mmHg 64%
    06:00 +13°C° 0 mm 2 mps 752 mmHg 58%
    07:00 +15°C° 0 mm 2 mps 751 mmHg 51%
    08:00 +18°C° 0 mm 2 mps 751 mmHg 44%
    09:00 +19°C° 0 mm 2 mps 750 mmHg 40%
    10:00 +21°C° 0 mm 2 mps 750 mmHg 36%
    11:00 +22°C° 0 mm 3 mps 749 mmHg 32%
    12:00 +24°C° 0 mm 3 mps 749 mmHg 33%
    13:00 +24°C° 0 mm 3 mps 748 mmHg 33%
    14:00 +25°C° 0 mm 3 mps 747 mmHg 33%
    15:00 +25°C° 0 mm 3 mps 747 mmHg 37%
    16:00 +25°C° 0 mm 3 mps 746 mmHg 41%
    17:00 +24°C° 0 mm 3 mps 745 mmHg 45%
    18:00 +21°C° 0 mm 3 mps 745 mmHg 55%
    19:00 +20°C° 0 mm 2 mps 744 mmHg 65%
    20:00 +18°C° 0 mm 2 mps 744 mmHg 75%
    21:00 +17°C° 0 mm 2 mps 743 mmHg 77%
    22:00 +16°C° 0 mm 2 mps 743 mmHg 80%
    23:00 +15°C° 0 mm 2 mps 743 mmHg 83%

    30 May, Wednesday

    Time Temperature Precipitation Wind Pressure Humidity
    00:00 +14°C° 0 mm 2 mps 743 mmHg 82%
    01:00 +14°C° 0 mm 2 mps 742 mmHg 81%
    02:00 +13°C° 0 mm 3 mps 742 mmHg 80%
    03:00 +14°C° 0 mm 3 mps 741 mmHg 79%
    04:00 +14°C° 0 mm 3 mps 741 mmHg 79%
    05:00 +15°C° 0 mm 4 mps 741 mmHg 78%
    06:00 +18°C° 0 mm 4 mps 740 mmHg 71%
    07:00 +19°C° 0 mm 5 mps 740 mmHg 64%
    08:00 +21°C° 0 mm 6 mps 739 mmHg 57%
    09:00 +22°C° 0 mm 6 mps 739 mmHg 53%
    10:00 +23°C° 0 mm 7 mps 738 mmHg 49%
    11:00 +24°C° 0 mm 7 mps 738 mmHg 45%
    12:00 +24°C° 0 mm 7 mps 738 mmHg 45%
    13:00 +24°C° 0 mm 6 mps 738 mmHg 45%
    14:00 +24°C° 0 mm 6 mps 738 mmHg 46%
    15:00 +23°C° 0 mm 6 mps 738 mmHg 45%
    16:00 +22°C° 0 mm 5 mps 737 mmHg 44%
    17:00 +21°C° 0 mm 4 mps 737 mmHg 43%
    18:00 +19°C° 0 mm 4 mps 737 mmHg 48%
    19:00 +17°C° 0 mm 3 mps 738 mmHg 52%
    20:00 +15°C° 0 mm 2 mps 738 mmHg 57%
    21:00 +13°C° 0 mm 2 mps 738 mmHg 58%
    22:00 +12°C° 0 mm 2 mps 738 mmHg 59%
    23:00 +10°C° 0 mm 2 mps 738 mmHg 61%

    31 May, Thursday

    Time Temperature Precipitation Wind Pressure Humidity
    00:00 +9°C° 0 mm 2 mps 739 mmHg 64%
    01:00 +8°C° 0 mm 2 mps 739 mmHg 68%
    02:00 +7°C° 0 mm 2 mps 739 mmHg 72%
    03:00 +8°C° 0 mm 2 mps 740 mmHg 71%
    04:00 +8°C° 0 mm 3 mps 740 mmHg 70%
    05:00 +8°C° 0 mm 3 mps 741 mmHg 69%
    06:00 +9°C° 0 mm 3 mps 741 mmHg 61%
    07:00 +10°C° 0 mm 4 mps 741 mmHg 53%
    08:00 +11°C° 0 mm 4 mps 742 mmHg 44%
    09:00 +12°C° 0 mm 4 mps 742 mmHg 39%
    10:00 +12°C° 0 mm 4 mps 742 mmHg 34%
    11:00 +13°C° 0 mm 4 mps 742 mmHg 29%
    12:00 +14°C° 0 mm 4 mps 742 mmHg 27%
    13:00 +14°C° 0 mm 4 mps 742 mmHg 26%
    14:00 +14°C° 0 mm 4 mps 742 mmHg 25%
    15:00 +14°C° 0 mm 4 mps 742 mmHg 26%
    16:00 +14°C° 0 mm 4 mps 742 mmHg 28%
    17:00 +13°C° 0 mm 4 mps 742 mmHg 30%
    18:00 +12°C° 0 mm 3 mps 742 mmHg 37%
    19:00 +10°C° 0 mm 3 mps 743 mmHg 43%
    20:00 +8°C° 0 mm 2 mps 743 mmHg 50%
    21:00 +7°C° 0 mm 2 mps 743 mmHg 53%
    22:00 +5°C° 0 mm 3 mps 744 mmHg 56%
    23:00 +4°C° 0 mm 3 mps 744 mmHg 58%

    1 June, Friday

    Time Temperature Precipitation Wind Pressure Humidity
    00:00 +3°C° 0 mm 3 mps 745 mmHg 62%
    01:00 +3°C° 0 mm 2 mps 745 mmHg 65%
    02:00 +2°C° 0 mm 2 mps 745 mmHg 69%
    03:00 +3°C° 0 mm 2 mps 745 mmHg 67%
    04:00 +2°C° 0 mm 3 mps 746 mmHg 65%
    05:00 +2°C° 0 mm 3 mps 746 mmHg 63%
    06:00 +4°C° 0 mm 3 mps 746 mmHg 56%
    07:00 +5°C° 0 mm 3 mps 746 mmHg 50%
    08:00 +8°C° 0 mm 3 mps 746 mmHg 44%
    09:00 +9°C° 0 mm 3 mps 746 mmHg 41%
    10:00 +10°C° 0 mm 4 mps 746 mmHg 38%
    11:00 +11°C° 0 mm 4 mps 746 mmHg 35%
    12:00 +12°C° 0 mm 4 mps 746 mmHg 34%
    13:00 +13°C° 0 mm 4 mps 746 mmHg 32%
    14:00 +13°C° 0 mm 4 mps 746 mmHg 31%
    15:00 +13°C° 0 mm 4 mps 745 mmHg 32%
    16:00 +13°C° 0 mm 4 mps 745 mmHg 33%
    17:00 +13°C° 0 mm 3 mps 745 mmHg 34%
    18:00 +11°C° 0 mm 3 mps 745 mmHg 41%
    19:00 +10°C° 0 mm 2 mps 745 mmHg 49%
    20:00 +9°C° 0 mm 1 mps 745 mmHg 56%
    21:00 +8°C° 0 mm 1 mps 745 mmHg 60%
    22:00 +7°C° 0 mm 1 mps 746 mmHg 63%
    23:00 +5°C° 0 mm 1 mps 746 mmHg 66%
    Show more